Home > Weather > Mo i Rana > Past weeks

Flag for Norway Weather for the Past 2 Weeks in Mo i Rana, Norway

Now
27 °F

Light snow. Ice fog.


Feels Like: 13 °F
Forecast: 17 / 28 °F
Wind: 20 mph from East

Location: Mo I Rana / Rossvoll

Current Time: Feb 6, 2016 at 2:37:51 PM

Latest Report: Feb 6, 2016 at 1:50 PM


Visibility: 2 mi

Pressure: 29.27 "Hg

Humidity: 80%

Dew point: 21 °F

Location of Mo i RanaLocation

Historic Weather in Mo i Rana — Graph

°F

Mo i Rana Temperature Yesterday

Maximum temperature yesterday: 32 °F (at 4:50 PM)
Minimum temperature yesterday: 16 °F (at 5:50 AM)
Average temperature yesterday: 23 °F

High & Low Weather Summary for the Past Weeks

 TemperatureHumidityPressure
High37 °F (Jan 26, 2:20 PM)100% (Jan 24, 1:50 PM)30.04 "Hg (Jan 24, 1:50 PM)
Low10 °F (Jan 23, 6:20 AM)60% (Jan 29, 2:20 PM)28.17 "Hg (Jan 30, 5:50 AM)
Average28 °F90%29.24 "Hg
* Reported Jan 22 1:20 PM — Feb 6 1:20 PM, Mo i Rana, Weather by CustomWeather, © 2016

Note: Actual official high and low records may vary slightly from our data, if they occured in-between our weather recording intervals... More about our weather records

Advertising

Mo i Rana Weather History for the Previous 24 Hours

 ConditionsComfort  
Time TempWeatherWind HumidityBarometerVisibility
1:20 PM
Sat, Feb 6
27 °FLight snow. Ice fog.20 mph80%29.27 "Hg4 mi
12:50 PM28 °FSnow flurries. Broken clouds.20 mph74%29.27 "HgN/A
12:20 PM28 °FSnow flurries. Broken clouds.20 mph74%29.30 "HgN/A
11:50 AM30 °FLight mixture of precip. Broken clouds.17 mph75%29.30 "HgN/A
10:50 AM30 °FBroken clouds.16 mph75%29.30 "HgN/A
10:20 AM30 °FLight mixture of precip. Broken clouds.16 mph75%29.33 "HgN/A
9:50 AM32 °FBroken clouds.17 mph64%29.33 "HgN/A
9:20 AM32 °FPartly sunny.14 mph64%29.33 "HgN/A
8:20 AM32 °FPassing clouds.14 mph64%29.36 "HgN/A
7:20 AM32 °FPartly cloudy.16 mph60%29.36 "HgN/A
6:50 AM32 °FPartly cloudy.16 mph60%29.39 "HgN/A
6:20 AM32 °FPartly cloudy.20 mph60%29.39 "HgN/A
5:50 AM30 °FPartly cloudy.21 mph64%29.42 "HgN/A
10:50 PM
Fri, Feb 5
25 °FPassing clouds.5 mph86%29.62 "HgN/A
10:20 PM25 °FPassing clouds.5 mph86%29.62 "HgN/A
9:20 PM25 °FPassing clouds.5 mph86%29.62 "HgN/A
8:50 PM25 °FPassing clouds.3 mph86%29.65 "HgN/A
8:20 PM25 °FPassing clouds.3 mph93%29.65 "HgN/A
7:50 PM25 °FPassing clouds.3 mph93%29.65 "HgN/A
7:20 PM25 °FPassing clouds.2 mph93%29.68 "HgN/A
6:50 PM25 °FPartly cloudy.2 mph93%29.68 "HgN/A
6:20 PM25 °FPartly cloudy.2 mph93%29.68 "HgN/A
5:50 PM25 °FPartly cloudy.3 mph93%29.68 "HgN/A
5:20 PM23 °FPartly cloudy.2 mph93%29.71 "HgN/A
4:50 PM32 °FLight freezing rain. Partly cloudy.No wind64%29.71 "HgN/A
4:20 PM23 °FMixture of precip. Partly cloudy.No wind93%29.71 "HgN/A
3:50 PM25 °FLight freezing rain. Ice fog.No wind93%29.71 "Hg2 mi
3:20 PM25 °FLight freezing rain. Broken clouds.No wind93%29.71 "Hg4 mi
2:50 PM25 °FLight freezing rain. Ice fog.No wind93%29.71 "Hg2 mi
2:20 PM23 °FLight freezing rain. Broken clouds.1 mph93%29.71 "HgN/A
Weather by CustomWeather, © 2016

See weather overviewHow to use our weather pages